Regional Weather Roundup
Issued by NWS

Home | Current Version | Previous Version | Text Only | Print | Product List | Glossary On
Versions: 1 2 3 4 5 6 7 8 9 10 11 12 13 14 15 16 17 18 19 20 21 22 23 24 25 26 27 28 29 30 31 32 33 34 35 36 37 38 39 40 41 42 43 44 45 46 47 48 49 50
000
ASUS43 KMKX 081421
RWRWI

WISCONSIN REGIONAL WEATHER ROUNDUP
NATIONAL WEATHER SERVICE MILWAUKEE/SULLIVAN WI
800 AM CST THU DEC 08 2016

NOTE: "FAIR" INDICATES FEW OR NO CLOUDS BELOW 12,000 FEET WITH NO
SIGNIFICANT WEATHER AND/OR OBSTRUCTIONS TO VISIBILITY.

WIZ001-002-006>008-014>016-023>028-081500-
NORTHWEST WISCONSIN

CITY           SKY/WX    TMP DP  RH WIND       PRES   REMARKS
SUPERIOR ARPT  CLOUDY    23  16  77 NW12G17   30.20R WCI  11
ASHLAND        PTCLDY    22  18  85 NW9       30.13R WCI  12
HAYWARD        CLOUDY    20  16  84 W7        30.13R WCI  11
SIREN          CLOUDY    22  16  78 NW16G23   30.21R WCI   8
CUMBERLAND     CLOUDY    21  18  86 NW12G21   30.16R WCI   9
RICE LAKE      FLURRIES  21  17  84 W10       30.18R WCI  10
CHETEK         CLOUDY    20  17  87 NW6       30.17R WCI  13
LADYSMITH      CLOUDY    23  18  83 NW14G22   30.14R WCI  10
EAU CLAIRE     CLOUDY    19  15  84 W10       30.19R WCI   7
MENOMONIE      PTCLDY    20  16  84 W15       30.20R WCI   6
NEW RICHMOND   FLURRIES  19  14  84 NW10      30.23R WCI   7
OSCEOLA        FLURRIES  20  16  84 W8        30.26R WCI  10
$$

WIZ003>005-009-010-017-018-081500-
NORTH CENTRAL WISCONSIN

CITY           SKY/WX    TMP DP  RH WIND       PRES   REMARKS
MANITOWISH WTR LGT SNOW  21  21 100 NW6       30.01R WCI  13
ARBOR VITAE    LGT SNOW  22  19  89 NW6       30.00R VSB 1   WCI  14
WOODRUFF       LGT SNOW  22  19  89 NW6       30.00R VSB 1   WCI  14
RHINELANDER    LGT SNOW  20  17  88 W10       30.01R FOG     WCI   9
EAGLE RIVER    PTCLDY    20  16  83 NW9       29.97R FOG     WCI   9
LAND O LAKES   LGT SNOW  22  20  93 NW6       29.98R WCI  14
PHILLIPS       CLOUDY    19  16  91 NW7       30.06R WCI   9
TOMAHAWK       CLOUDY    18  15  87 W9        30.04R WCI   7
MEDFORD        CLOUDY    17  13  86 W9        30.07R WCI   5
MERRILL        CLOUDY    19  15  84 W12       30.06R WCI   7
$$

WIZ029-030-035-036-043>047-081500-
CENTRAL WISCONSIN

CITY           SKY/WX    TMP DP  RH WIND       PRES   REMARKS
WAUSAU         CLOUDY    16  13  88 W9        30.07R WCI   4
MOSINEE        LGT SNOW  16  14  93 W10       30.09R WCI   3
MARSHFIELD     CLOUDY    15  11  83 W13       30.10R WCI   1
STEVENS POINT  FLURRIES  15  11  85 W10G21    30.11R WCI   2
WAUPACA        FLURRIES  19  13  76 W14G24    30.11R WCI   5
WAUTOMA        FLURRIES  16  11  80 W16       30.14R WCI   1
WISC RAPIDS    LGT SNOW  16  12  84 W9        30.15R FOG     WCI   4
CAMP DOUGLAS   MOCLDY    18  12  79 W13       30.18R WCI   4
$$

WIZ011>013-019>022-031-037>040-048>050-081500-
NORTHEAST WISCONSIN

CITY           SKY/WX    TMP DP  RH WIND       PRES   REMARKS
ANTIGO         CLOUDY    16  13  88 W13       30.02R WCI   2
SHAWANO        CLEAR     20  13  74 W12G20    30.06R WCI   8
OCONTO         CLOUDY    20  12  72 W16G22    30.03R WCI   6
STURGEON BAY   FLURRIES  21  15  78 W13       30.02R WCI   9
GREEN BAY      CLOUDY    20  14  77 W18       30.06R WCI   5
MANITOWOC      FLURRIES  19  13  77 MISG      30.06S
APPLETON       MOCLDY    18  10  73 W18G25    30.07R WCI   2
CLINTONVILLE   PTCLDY    19  12  73 W13G20    30.08R WCI   7
OSHKOSH        CLOUDY    17  11  77 W14G24    30.10R HAZE    WCI   3
$$

WIZ032>034-041-042-053>061-081500-
SOUTHWEST WISCONSIN

CITY           SKY/WX    TMP DP  RH WIND       PRES   REMARKS
LA CROSSE      CLOUDY    20  13  74 W10       30.25R WCI   9
SPARTA         FLURRIES  18  13  83 W8        30.21R WCI   7
VIROQUA        CLOUDY    15  12  87 W10       30.20R WCI   3
BOSCOBEL       CLOUDY    17   9  70 SW9       30.27R WCI   6
PRAIRIE DU CHI FLURRIES  17   9  72 W10       30.29R WCI   4
PLATTEVILLE    PTCLDY    13   9  82 W16G22    30.25S WCI  -3
$$

WIZ056-057-062-063-064-067-068-081500-
SOUTH CENTRAL WISCONSIN

CITY           SKY/WX    TMP DP  RH WIND       PRES   REMARKS
REEDSBURG      FLURRIES  15  10  81 W8G16     30.19R WCI   4
BARABOO/DELLS  FLURRIES  15  10  79 W9        30.18R WCI   3
LONE ROCK      FLURRIES  17   9  70 W14       30.24R WCI   3
MINERAL POINT  FLURRIES  16  10  79 W12G17    30.22R WCI   3
MADISON        FLURRIES  15   8  73 W10G16    30.19R WCI   2
MIDDLETON      PTCLDY    16  10  78 W14G20    30.20R WCI   2
WATERTOWN      PTCLDY    15  10  77 W10       30.16R WCI   3
MONROE         CLOUDY    14   9  79 W20       30.21R WCI  -3
JANESVILLE     CLOUDY    16   9  73 W13G18    30.22R WCI   2
$$

WIZ051-052-058>065-066-070>072-081500-
SOUTHEAST WISCONSIN

CITY           SKY/WX    TMP DP  RH WIND       PRES   REMARKS
MILWAUKEE      MOCLDY    19   8  62 W17G28    30.16R WCI   4
WAUKESHA       MOCLDY    16   9  73 W17G25    30.15R WCI   0
MILWAUKEE/TIMM PTCLDY    18   7  62 W16G24    30.15R WCI   3
RACINE         CLOUDY    19   8  62 W12G25    30.18R WCI   7
BURLINGTON     FLURRIES  20  15  78 W14G20    30.19R WCI   7
KENOSHA        CLOUDY    17   9  70 W18       30.18R WCI   1
FOND DU LAC    FLURRIES  18   9  68 W15G23    30.12R WCI   4
SHEBOYGAN      LGT SNOW  18  11  74 W16G24    30.09R WCI   3
WEST BEND      FLURRIES  18  12  79 W13G22    30.12R WCI   4
JUNEAU         CLOUDY    15   9  77 W15G21    30.16R WCI   0
$$

LSZ147-162-081500-
LAKE SUPERIOR

STATION/POSITION TIME  TEMP    WIND        PRES    WAVE
                       AIR SEA DIR/SP/G            HT/PER
                 (UTC) (F)     (DEG/KT/KT) (MB)    (FT/S)
DEVILS ISLAND    1400   26     330/ 22/ 26 1021.0R
PORT WING        1359   26     330/ 19/ 25 1021.3R
SAXON HARBOR     1330   29     340/ 23/ 28 1018.6R
$$

LMZ867-665-643>646-081500-
LAKE MICHIGAN

STATION/POSITION TIME  TEMP    WIND        PRES    WAVE
                       AIR SEA DIR/SP/G            HT/PER
                 (UTC) (F)     (DEG/KT/KT) (MB)    (FT/S)
CHAMBERS ISLAND  1330   22     240/ 10/ 17 1014.6R
NORTHPORT PIER   1402   25     290/ 11/ 20 1014.6
SISTER BAY       1351   25     300/ 24/ 30   N/A
ALGOMA LAKESHORE 1221          250/ 11/ 17   N/A
KEWAUNEE LAKESHO 1354   19     310/ 17/ 28 1016.4R
SHEBOYGAN LAKESH 1400   19     260/ 18/ 22 1019.9R
PORT WASHINGTON  1340   19     270/ 12/ 20 1021.3R
MILWAUKEE LAKESH 1400   19     270/ 17/ 23   N/A
KENOSHA   LAKESH 1400   17     270/ 21/ 28 1021.7
$$

TC  - TEMPERATURE IN CELSIUS
VSB - VISIBILITY IN STATUTE MILES
WCI - WIND CHILL INDEX
HX  - HEAT INDEX




USA.gov is the U.S. government's official web portal to all federal, state and local government web resources and services.